Weather History for Springfield, IL

Change the Weather History Date:

Monday, September 9, 2013

  Actual Average Record
Temperature  
Mean Temperature 83 °F 70 °F  
Max Temperature 93 °F 82 °F 100 °F (1925)
Min Temperature 72 °F 58 °F 39 °F (1883)
Degree Days  
Heating Degree Days 0 1  
Month to date heating degree days 0 6  
Since 1 July heating degree days 11 11  
Cooling Degree Days 18 6  
Month to date cooling degree days 80 58  
Year to date cooling degree days 1020 1028  
Growing Degree Days 33 (Base 50)    
Moisture  
Dew Point 72 °F    
Average Humidity 71    
Maximum Humidity 93    
Minimum Humidity 49    
Precipitation  
Precipitation 0.00 in 0.11 in 1.18 in (1938)
Month to date precipitation 0.32 0.88  
Year to date precipitation 30.99 26.53  
Snow  
Snow 0.00 in 0.00 in 0.00 in ()
Month to date snowfall 0.0 0.0  
Since 1 July snowfall 0.0 0.0  
Since 1 September snowfall 0.0 0.0  
Snow Depth 0.00 in    
Sea Level Pressure  
Sea Level Pressure 29.91 in    
Wind  
Wind Speed 7 mph (SSW)    
Max Wind Speed 14 mph    
Max Gust Speed 17 mph    
Visibility 9 miles    
Events      
T = Trace of Precipitation, MM = Missing Value Source: NWS Daily Summary

Daily Weather History Graph

Daily Weather History Graph

Search for Another Location

Airport:

Trip Planner

Search our weather history database for the weather conditions in past years. The results will help you decide how hot, cold, wet, or windy it might be!

Date:

Astronomy

Sep. 09, 2013 Rise Set
Actual Time 6:34 AM CDT 7:16 PM CDT
Civil Twilight 6:07 AM CDT 7:44 PM CDT
Nautical Twilight 5:34 AM CDT 8:16 PM CDT
Astronomical Twilight 5:01 AM CDT 8:49 PM CDT
Moon 10:55 AM CDT (9/9) 9:33 PM CDT (9/9)
Length of Visible Light 13h 36m
Length of Day
12h 42m
Waxing Crescent, 19% of the Moon is Illuminated
Sep 9
Waxing Crescent
Sep 12
First Quarter
Sep 19
Full
Sep 26
Last Quarter
Oct 4
New

Hourly Weather History & Observations

Time (CDT) Temp. Heat Index Dew Point Humidity Pressure Visibility Wind Dir Wind Speed Gust Speed Precip Events Conditions
12:52 AM 73.0 °F - 72.0 °F 96% 29.92 in 7.0 mi South 5.8 mph - N/A   Clear
1:52 AM 73.0 °F - 71.1 °F 93% 29.92 in 6.0 mi South 5.8 mph - N/A   Clear
2:52 AM 73.0 °F - 71.1 °F 93% 29.91 in 6.0 mi South 5.8 mph - N/A   Clear
3:52 AM 73.0 °F - 71.1 °F 93% 29.91 in 7.0 mi South 6.9 mph - N/A   Clear
4:52 AM 73.0 °F - 71.1 °F 93% 29.90 in 6.0 mi South 8.1 mph - N/A   Partly Cloudy
5:52 AM 73.0 °F - 71.1 °F 93% 29.91 in 6.0 mi South 6.9 mph - N/A   Clear
6:52 AM 73.0 °F - 71.1 °F 93% 29.92 in 5.0 mi South 8.1 mph - N/A   Clear
7:52 AM 75.0 °F - 72.0 °F 90% 29.93 in 6.0 mi South 5.8 mph - N/A   Partly Cloudy
8:52 AM 78.1 °F - 72.0 °F 81% 29.93 in 9.0 mi SSW 8.1 mph - N/A   Scattered Clouds
9:52 AM 81.0 °F 85.8 °F 73.0 °F 77% 29.94 in 10.0 mi SW 6.9 mph - N/A   Clear
10:52 AM 84.0 °F 89.6 °F 72.0 °F 67% 29.94 in 10.0 mi SW 8.1 mph - N/A   Partly Cloudy
11:52 AM 88.0 °F 94.7 °F 72.0 °F 59% 29.92 in 10.0 mi SW 8.1 mph - N/A   Clear
12:52 PM 90.0 °F 96.9 °F 72.0 °F 55% 29.90 in 10.0 mi SSW 8.1 mph - N/A   Clear
1:52 PM 93.0 °F 100.7 °F 72.0 °F 50% 29.90 in 10.0 mi Variable 6.9 mph - N/A   Clear
2:52 PM 91.0 °F 97.6 °F 71.1 °F 52% 29.89 in 10.0 mi SSW 8.1 mph - N/A   Clear
3:52 PM 91.9 °F 100.7 °F 73.0 °F 54% 29.88 in 10.0 mi SSW 9.2 mph - N/A   Clear
4:52 PM 91.0 °F 101.6 °F 75.0 °F 59% 29.88 in 10.0 mi SSW 8.1 mph - N/A   Clear
5:52 PM 90.0 °F 96.9 °F 72.0 °F 55% 29.88 in 10.0 mi SSW 10.4 mph - N/A   Clear
6:52 PM 87.1 °F 94.5 °F 73.0 °F 63% 29.89 in 10.0 mi SSW 6.9 mph - N/A   Clear
7:52 PM 82.9 °F 88.8 °F 73.0 °F 72% 29.90 in 10.0 mi South 6.9 mph - N/A   Clear
8:52 PM 81.0 °F 85.8 °F 73.0 °F 77% 29.92 in 10.0 mi South 5.8 mph - N/A   Clear
9:52 PM 79.0 °F - 73.0 °F 82% 29.93 in 10.0 mi South 6.9 mph - N/A   Clear
10:52 PM 78.1 °F - 72.0 °F 81% 29.95 in 10.0 mi Calm Calm - N/A   Clear
11:52 PM 79.0 °F - 71.1 °F 77% 29.95 in 10.0 mi SW 4.6 mph - N/A   Clear